This is the latest recevied weather packets stored in our database for station/object W0SS-13. If no packets are shown the sender has not sent any weather packets the latest 10 day(s).
| Time | Temp. | Humidity | Pressure | Rain* | Wind** | Luminosity | Snow |
|---|---|---|---|---|---|---|---|
| 1777971185 | 9.44° C | 78% | 1008.9 hPa | 0 mm | - | 0 W/m² | - |
| 1777970882 | 9.44° C | 77% | 1008.2 hPa | 0 mm | - | 0 W/m² | - |
| 1777970581 | 9.44° C | 78% | 1007.9 hPa | 0 mm | - | 0 W/m² | - |
| 1777970277 | 9.44° C | 80% | 1008.1 hPa | 0 mm | - | 0 W/m² | - |
| 1777969974 | 9.44° C | 80% | 1008.3 hPa | 0 mm | - | 0 W/m² | - |
| 1777969671 | 9.44° C | 80% | 1007.7 hPa | 0 mm | - | 0 W/m² | - |
| 1777969368 | 9.44° C | 81% | 1007.6 hPa | 0 mm | - | 0 W/m² | - |
| 1777969063 | 10° C | 81% | 1007.8 hPa | 1.78 mm | - | 0 W/m² | - |
| 1777968761 | 9.44° C | 81% | 1007.9 hPa | 1.78 mm | - | 0 W/m² | - |
| 1777968458 | 10° C | 82% | 1007.9 hPa | 0 mm | - | 0 W/m² | - |
| 1777968153 | 9.44° C | 82% | 1007.7 hPa | 3.05 mm | - | 0 W/m² | - |
| 1777967849 | 9.44° C | 83% | 1007.1 hPa | 7.87 mm | - | 0 W/m² | - |
| 1777967547 | 9.44° C | 84% | 1006.9 hPa | 7.87 mm | - | 0 W/m² | - |
| 1777967244 | 9.44° C | 83% | 1008.7 hPa | 4.32 mm | - | 0 W/m² | - |
| 1777966941 | 10° C | 82% | 1009.2 hPa | 6.1 mm | - | 0 W/m² | - |
| 1777966638 | 10° C | 81% | 1009.4 hPa | 7.87 mm | - | 0 W/m² | - |
| 1777966336 | 10.56° C | 77% | 1009.8 hPa | 4.83 mm | - | 0 W/m² | - |
| 1777966032 | 10.56° C | 76% | 1010.3 hPa | 4.83 mm | - | 0 W/m² | - |
| 1777965728 | 11.11° C | 75% | 1010.1 hPa | 6.1 mm | - | 0 W/m² | - |
| 1777965424 | 11.67° C | 72% | 1010.4 hPa | 6.1 mm | - | 0 W/m² | - |
| 1777965122 | 11.67° C | 71% | 1010.3 hPa | 6.1 mm | - | 0 W/m² | - |
| 1777964819 | 11.67° C | 73% | 1010.1 hPa | 3.05 mm | - | 0 W/m² | - |
| 1777964515 | 12.22° C | 75% | 1009.9 hPa | 1.27 mm | - | 0 W/m² | - |
| 1777964211 | 12.78° C | 72% | 1009.2 hPa | 1.27 mm | - | 0 W/m² | - |
| 1777963908 | 12.78° C | 72% | 1008.9 hPa | 0 mm | - | 0 W/m² | - |
* Rain latest hour (hover to see other rain measurements)
** Current wind speed in m/s (hover to see current wind gust speed)